period_start,C,m1,H,J0,J1,J2,J3,J4,J5,JA,JB,JC,JD,JJ,JK,JN,#
2017-08-27 00:01:27,-0.01,1.65,0.00,20.92,25.15,28.20,14.18,44.48,1021.97,2041.85,2965.54,2631.02,3026.56,600.42,603.71,34.79,0000 0000 0000 0000 000000
2017-08-27 00:06:29,-0.04,1.65,0.00,20.92,25.15,28.19,14.09,44.43,1021.98,2041.53,2965.89,2631.03,3026.67,599.53,602.98,34.84,0000 0000 0000 0000 000000
2017-08-27 00:11:30,-0.02,1.64,0.00,20.92,25.15,28.19,14.05,44.31,1021.98,2041.31,2965.94,2631.03,3026.76,599.77,603.10,34.89,0000 0000 0000 0000 000000
2017-08-27 00:16:31,-0.01,1.64,0.00,20.92,25.15,28.19,14.09,44.39,1021.99,2041.36,2965.97,2631.08,3026.90,599.96,603.38,34.94,0000 0000 0000 0000 000000
2017-08-27 00:21:33,-0.00,1.64,0.00,20.92,25.15,28.17,14.08,44.58,1021.98,2041.15,2965.98,2631.10,3026.91,600.44,603.88,34.99,0000 0000 0000 0000 000000
2017-08-27 00:26:34,-0.00,1.64,0.00,20.94,25.15,28.19,14.06,44.31,1021.98,2041.16,2965.98,2631.10,3026.91,599.66,602.94,35.04,0000 0000 0000 0000 000000
2017-08-27 00:31:35,-0.01,1.64,0.00,20.94,25.15,28.18,14.18,44.60,1021.98,2041.10,2965.98,2631.09,3026.92,600.21,603.80,35.09,0000 0000 0000 0000 000000
2017-08-27 00:36:36,0.00,1.64,0.00,20.93,25.15,28.16,14.13,44.50,1021.99,2041.09,2965.98,2631.05,3026.87,599.96,603.36,35.14,0000 0000 0000 0000 000000
2017-08-27 00:41:38,-0.00,1.64,0.00,20.93,25.14,28.18,14.06,44.36,1021.98,2041.05,2965.98,2631.06,3026.79,599.36,602.74,35.19,0000 0000 0000 0000 000000
2017-08-27 00:46:39,0.00,1.64,0.00,20.93,25.14,28.17,14.13,44.37,1021.97,2041.05,2965.97,2631.06,3026.76,600.62,603.81,35.24,0000 0000 0000 0000 000000
2017-08-27 00:51:40,0.00,1.64,0.00,20.93,25.14,28.19,14.08,44.33,1021.99,2041.11,2965.97,2631.08,3026.80,599.64,603.05,35.29,0000 0000 0000 0000 000000
2017-08-27 00:56:41,-0.00,1.64,0.00,20.92,25.14,28.18,14.02,44.33,1021.98,2041.08,2965.98,2631.09,3026.88,599.52,602.92,35.34,0000 0000 0000 0000 000000
2017-08-27 01:01:43,-0.01,1.64,0.00,20.93,25.14,28.18,14.16,44.47,1021.98,2041.11,2965.98,2631.10,3026.89,600.17,603.63,35.39,0000 0000 0000 0000 000000
2017-08-27 01:06:44,0.01,1.64,0.00,20.93,25.14,28.17,14.08,44.45,1021.99,2041.10,2965.98,2631.08,3026.82,599.67,603.04,35.44,0000 0000 0000 0000 000000
2017-08-27 01:11:45,-0.01,1.64,0.00,20.94,25.14,28.20,14.07,44.33,1021.99,2041.06,2965.98,2631.14,3026.79,599.97,603.37,35.49,0000 0000 0000 0000 000000
2017-08-27 01:16:47,-0.01,1.64,0.00,20.94,25.14,28.19,14.15,44.55,1021.98,2041.08,2965.98,2631.14,3026.79,600.40,603.74,35.54,0000 0000 0000 0000 000000
2017-08-27 01:21:48,0.00,1.64,0.00,20.94,25.14,28.17,14.14,44.55,1021.99,2041.08,2965.98,2631.20,3026.86,600.29,603.54,35.59,0000 0000 0000 0000 000000
2017-08-27 01:26:49,0.00,1.64,0.00,20.96,25.14,28.19,14.11,44.66,1021.99,2041.07,2965.95,2631.07,3026.70,600.21,603.67,35.64,0000 0000 0000 0000 000000
2017-08-27 01:31:50,0.00,1.64,0.00,20.97,25.14,28.18,14.08,44.40,1021.99,2041.06,2965.96,2631.05,3026.54,600.01,603.46,35.69,0000 0000 0000 0000 000000
2017-08-27 01:36:51,0.00,1.64,0.00,20.98,25.15,28.18,14.20,44.53,1021.98,2041.06,2965.97,2631.03,3026.55,600.08,603.33,35.74,0000 0000 0000 0000 000000
2017-08-27 01:41:52,0.00,1.64,0.00,20.99,25.15,28.16,14.11,44.39,1021.99,2041.04,2965.90,2631.02,3026.30,600.14,603.43,35.80,0000 0000 0000 0000 000000
2017-08-27 01:46:54,0.01,1.64,0.00,20.99,25.15,28.16,14.08,44.48,1021.99,2041.06,2965.80,2631.03,3026.19,599.89,603.09,35.85,0000 0000 0000 0000 000000
2017-08-27 01:51:55,-0.00,1.64,0.00,21.00,25.15,28.16,14.04,44.44,1021.99,2041.05,2965.72,2631.03,3026.19,599.81,603.19,35.90,0000 0000 0000 0000 000000
2017-08-27 01:56:56,-0.00,1.64,0.00,21.01,25.15,28.16,13.98,44.49,1021.99,2041.07,2965.71,2631.03,3026.15,599.79,603.02,35.95,0000 0000 0000 0000 000000
2017-08-27 02:01:57,0.00,1.64,0.00,21.02,25.15,28.18,14.15,44.57,1021.99,2041.04,2965.58,2631.02,3026.06,600.12,603.39,36.00,0000 0000 0000 0000 000000
2017-08-27 02:06:58,-0.00,1.64,0.00,21.01,25.15,28.19,14.08,44.50,1021.99,2041.02,2965.39,2631.01,3026.03,600.24,603.42,36.05,0000 0000 0000 0000 000000
2017-08-27 02:12:00,0.00,1.64,0.00,21.02,25.15,28.20,14.08,44.33,1021.99,2041.03,2965.49,2631.01,3026.04,599.59,602.81,36.10,0000 0000 0000 0000 000000
2017-08-27 02:17:01,0.00,1.64,0.00,21.02,25.16,28.18,14.10,44.53,1021.99,2041.03,2965.24,2631.00,3026.01,600.45,603.67,36.15,0000 0000 0000 0000 000000
2017-08-27 02:22:02,-0.00,1.64,0.00,21.03,25.17,28.20,14.16,44.72,1021.99,2041.00,2965.16,2631.00,3026.01,600.49,603.78,36.20,0000 0000 0000 0000 000000
2017-08-27 02:27:04,0.00,1.64,0.00,21.04,25.17,28.22,14.11,44.58,1021.99,2041.01,2965.10,2631.00,3026.01,600.19,603.35,36.25,0000 0000 0000 0000 000000
2017-08-27 02:32:05,-0.00,1.64,0.00,21.04,25.17,28.19,14.05,44.57,1021.99,2041.00,2965.13,2631.00,3026.00,599.67,602.80,36.30,0000 0000 0000 0000 000000
2017-08-27 02:37:06,-0.00,1.64,0.00,21.04,25.17,28.19,14.08,44.67,1021.99,2041.00,2965.13,2631.00,3026.01,599.72,602.90,36.35,0000 0000 0000 0000 000000
2017-08-27 02:42:07,0.00,1.64,0.00,21.05,25.17,28.18,14.13,44.63,1021.99,2041.00,2965.07,2631.00,3026.00,600.00,603.10,36.40,0000 0000 0000 0000 000000
2017-08-27 02:47:09,-0.00,1.64,0.00,21.06,25.17,28.23,14.08,44.71,1021.99,2041.00,2965.24,2631.00,3026.00,600.14,603.23,36.45,0000 0000 0000 0000 000000
2017-08-27 02:52:10,0.00,1.64,0.00,21.08,25.19,28.21,14.16,44.53,1021.99,2041.00,2965.43,2631.00,3026.00,599.95,602.98,36.50,0000 0000 0000 0000 000000
2017-08-27 02:57:12,0.00,1.64,0.00,21.08,25.20,28.23,14.06,44.88,1022.00,2041.00,2965.27,2631.00,3026.00,599.94,603.04,36.55,0000 0000 0000 0000 000000
2017-08-27 03:02:13,0.00,1.64,0.00,21.09,25.20,28.24,14.06,44.71,1022.00,2041.00,2965.18,2631.00,3026.00,600.10,603.22,36.60,0000 0000 0000 0000 000000
2017-08-27 03:07:14,0.00,1.64,0.00,21.11,25.20,28.24,14.10,44.82,1022.00,2041.00,2965.00,2630.99,3025.99,599.81,602.83,36.65,0000 0000 0000 0000 000000
2017-08-27 03:12:15,0.00,1.64,0.00,21.12,25.21,28.23,14.07,44.81,1022.00,2041.00,2964.99,2630.98,3025.98,599.96,603.06,36.71,0000 0000 0000 0000 000000
2017-08-27 03:17:16,0.00,1.64,0.00,21.13,25.22,28.24,14.04,44.81,1022.01,2041.00,2964.97,2630.97,3025.96,599.99,603.02,36.76,0000 0000 0000 0000 000000
2017-08-27 03:22:17,0.00,1.64,0.00,21.14,25.22,28.25,14.06,44.78,1022.01,2041.00,2964.93,2630.94,3025.93,599.80,602.74,36.81,0000 0000 0000 0000 000000
2017-08-27 03:27:18,-0.00,1.64,0.00,21.17,25.22,28.25,14.14,44.76,1022.02,2041.00,2964.91,2630.96,3025.94,599.92,602.65,36.86,0000 0000 0000 0000 000000
2017-08-27 03:32:20,0.00,1.64,0.00,21.19,25.25,28.24,14.08,44.66,1022.00,2041.00,2964.98,2630.97,3025.91,599.83,602.62,36.91,0000 0000 0000 0000 000000
2017-08-27 03:37:21,-0.00,1.64,0.00,21.21,25.25,28.25,14.12,44.73,1021.99,2040.98,2964.99,2630.96,3025.86,600.20,603.04,36.96,0000 0000 0000 0000 000000
2017-08-27 03:42:22,0.01,1.64,0.00,21.23,25.26,28.25,14.07,44.62,1022.03,2040.97,2964.97,2630.83,3025.55,599.89,602.67,37.01,0000 0000 0000 0000 000000
2017-08-27 03:47:23,0.01,1.65,0.00,21.24,25.27,28.28,14.09,44.79,1022.07,2040.98,2964.96,2630.71,3025.27,600.22,603.03,37.06,0000 0000 0000 0000 000000
2017-08-27 03:52:24,0.01,1.65,0.00,21.26,25.28,28.29,14.07,44.75,1022.09,2040.94,2964.94,2630.48,3025.11,600.07,602.94,37.11,0000 0000 0000 0000 000000
2017-08-27 03:57:26,0.01,1.65,0.00,21.28,25.30,28.27,14.06,44.60,1022.19,2040.92,2964.82,2630.25,3025.06,599.86,602.68,37.16,0000 0000 0000 0000 000000
2017-08-27 04:02:27,-0.02,1.65,0.00,21.29,25.31,28.28,14.05,44.80,1022.30,2040.76,2964.80,2630.11,3025.01,599.78,602.61,37.21,0000 0000 0000 0000 000000
2017-08-27 04:07:28,0.00,1.65,0.00,21.31,25.32,28.30,14.04,44.62,1022.31,2040.68,2964.50,2630.05,3025.01,599.90,602.76,37.26,0000 0000 0000 0000 000000
2017-08-27 04:12:30,-0.03,1.64,0.00,21.32,25.33,28.32,14.06,44.71,1022.43,2040.29,2964.25,2630.01,3025.00,600.07,602.92,37.31,0000 0000 0000 0000 000000
2017-08-27 04:17:31,0.05,1.65,0.00,21.33,25.35,28.35,14.02,44.77,1022.44,2040.63,2964.11,2630.03,3025.00,599.35,602.19,37.36,0000 0000 0000 0000 000000
2017-08-27 04:22:33,0.01,1.65,0.00,21.35,25.36,28.38,14.11,44.87,1022.47,2040.90,2963.99,2630.01,3025.00,600.02,602.98,37.41,0000 0000 0000 0000 000000
2017-08-27 04:27:34,0.01,1.65,0.00,21.37,25.37,28.38,14.08,44.72,1022.48,2040.93,2963.80,2630.00,3024.96,600.01,602.80,37.46,0000 0000 0000 0000 000000
2017-08-27 04:32:35,-0.01,1.65,0.00,21.39,25.38,28.38,14.04,44.71,1022.48,2040.88,2963.69,2630.00,3024.95,600.04,602.89,37.51,0000 0000 0000 0000 000000
2017-08-27 04:37:36,0.00,1.65,0.00,21.40,25.40,28.39,14.06,44.50,1022.48,2040.73,2963.68,2630.00,3024.85,599.70,602.43,37.56,0000 0000 0000 0000 000000
2017-08-27 04:42:37,0.00,1.65,0.00,21.42,25.40,28.43,14.09,44.63,1022.48,2040.65,2963.29,2629.99,3024.43,599.80,602.45,37.61,0000 0000 0000 0000 000000
2017-08-27 04:47:39,-0.04,1.65,0.00,21.43,25.42,28.42,14.11,44.58,1022.48,2040.29,2963.18,2629.96,3024.15,600.35,602.91,37.66,0000 0000 0000 0000 000000
2017-08-27 04:52:40,-0.01,1.65,0.00,21.44,25.42,28.44,14.08,44.46,1022.48,2040.06,2963.18,2629.97,3024.07,599.71,602.39,37.71,0000 0000 0000 0000 000000
2017-08-27 04:57:41,-0.01,1.65,0.00,21.44,25.44,28.43,14.02,44.61,1022.48,2040.04,2963.23,2629.98,3024.03,599.94,602.55,37.77,0000 0000 0000 0000 000000
2017-08-27 05:02:42,0.01,1.65,0.00,21.44,25.45,28.46,14.09,44.70,1022.48,2040.03,2963.03,2629.82,3024.01,600.01,602.50,37.82,0000 0000 0000 0000 000000
2017-08-27 05:07:44,0.02,1.65,0.00,21.46,25.46,28.46,14.13,44.67,1022.48,2040.03,2962.99,2629.40,3024.00,599.99,602.55,37.87,0000 0000 0000 0000 000000
2017-08-27 05:12:45,0.01,1.65,0.00,21.47,25.47,28.51,14.10,44.72,1022.48,2040.03,2962.70,2629.06,3023.99,599.66,602.38,37.92,0000 0000 0000 0000 000000
2017-08-27 05:17:46,-0.01,1.65,0.00,21.49,25.49,28.47,14.11,44.58,1022.48,2040.02,2962.80,2629.03,3023.97,600.18,602.69,37.97,0000 0000 0000 0000 000000
2017-08-27 05:22:48,0.02,1.65,0.00,21.50,25.50,28.50,14.04,44.57,1022.48,2040.03,2962.24,2629.00,3023.95,599.94,602.64,38.02,0000 0000 0000 0000 000000
2017-08-27 05:27:49,-0.01,1.65,0.00,21.50,25.50,28.53,14.04,44.36,1022.48,2040.02,2962.47,2629.00,3023.93,600.00,602.57,38.07,0000 0000 0000 0000 000000
2017-08-27 05:32:50,0.01,1.65,0.00,21.52,25.52,28.56,13.99,44.58,1022.48,2040.00,2962.11,2629.00,3023.73,599.66,602.18,38.12,0000 0000 0000 0000 000000
2017-08-27 05:37:52,0.01,1.65,0.00,21.52,25.52,28.56,14.09,44.59,1022.48,2040.01,2962.01,2629.00,3023.41,600.08,602.57,38.17,0000 0000 0000 0000 000000
2017-08-27 05:42:53,-0.00,1.65,0.00,21.53,25.54,28.57,14.09,44.66,1022.48,2040.00,2962.02,2629.00,3023.33,600.08,602.57,38.22,0000 0000 0000 0000 000000
2017-08-27 05:47:54,0.00,1.65,0.00,21.54,25.55,28.56,14.05,44.42,1022.48,2040.00,2962.00,2629.00,3023.10,599.27,601.88,38.27,0000 0000 0000 0000 000000
2017-08-27 05:52:56,0.00,1.65,0.00,21.55,25.56,28.57,14.17,44.70,1022.48,2040.00,2962.01,2628.98,3023.05,600.04,602.41,38.32,0000 0000 0000 0000 000000
2017-08-27 05:57:57,0.00,1.65,0.00,21.56,25.57,28.58,14.06,44.69,1022.48,2040.00,2962.02,2628.98,3023.04,600.14,602.64,38.37,0000 0000 0000 0000 000000
2017-08-27 06:02:58,0.00,1.65,0.00,21.56,25.58,28.60,14.10,44.57,1022.48,2040.00,2962.01,2628.98,3023.01,599.85,602.21,38.42,0000 0000 0000 0000 000000
2017-08-27 06:08:00,-0.00,1.65,0.00,21.56,25.60,28.60,14.07,44.52,1022.49,2039.98,2962.01,2628.98,3023.00,599.64,602.11,38.47,0000 0000 0000 0000 000000
2017-08-27 06:13:01,0.00,1.65,0.00,21.57,25.60,28.61,14.06,44.52,1022.48,2039.98,2962.02,2628.97,3023.00,600.24,602.62,38.52,0000 0000 0000 0000 000000
2017-08-27 06:18:02,-0.00,1.65,0.00,21.57,25.61,28.65,14.07,44.49,1022.49,2039.98,2962.01,2628.97,3023.00,599.82,602.19,38.57,0000 0000 0000 0000 000000
2017-08-27 06:23:04,0.00,1.65,0.00,21.59,25.62,28.65,14.06,44.63,1022.49,2039.96,2961.99,2628.87,3023.00,599.97,602.35,38.62,0000 0000 0000 0000 000000
2017-08-27 06:28:05,-0.04,1.65,0.00,21.59,25.62,28.64,14.09,44.62,1022.49,2039.75,2961.99,2628.85,3023.00,600.13,602.46,38.67,0000 0000 0000 0000 000000
2017-08-27 06:33:06,-0.02,1.65,0.00,21.59,25.63,28.68,14.04,44.48,1022.50,2039.42,2961.99,2628.68,3022.98,599.79,602.10,38.73,0000 0000 0000 0000 000000
2017-08-27 06:38:07,-0.01,1.65,0.00,21.59,25.65,28.69,14.11,44.63,1022.50,2039.25,2961.99,2628.53,3022.98,600.20,602.63,38.78,0000 0000 0000 0000 000000
2017-08-27 06:43:09,0.04,1.65,0.00,21.59,25.65,28.68,14.05,44.52,1022.50,2039.16,2961.51,2628.14,3022.41,599.95,602.33,38.83,0000 0000 0000 0000 000000
2017-08-27 06:48:10,0.02,1.65,0.00,21.59,25.65,28.68,14.08,44.55,1022.58,2039.30,2961.00,2628.00,3022.01,600.00,602.39,38.88,0000 0000 0000 0000 000000
2017-08-27 06:53:11,-0.01,1.65,0.00,21.59,25.67,28.71,14.07,44.52,1022.57,2039.28,2960.99,2627.99,3022.00,599.79,602.14,38.93,0000 0000 0000 0000 000000
2017-08-27 06:58:12,-0.00,1.65,0.00,21.59,25.67,28.71,13.99,44.62,1022.49,2039.24,2960.98,2627.99,3022.00,599.64,602.00,38.98,0000 0000 0000 0000 000000
2017-08-27 07:03:13,0.05,1.65,0.00,21.59,25.67,28.71,14.07,44.77,1022.50,2039.05,2960.20,2627.55,3021.54,600.05,602.37,39.03,0000 0000 0000 0000 000000
2017-08-27 07:08:14,0.05,1.65,0.00,21.59,25.68,28.75,14.12,44.71,1022.56,2039.03,2958.82,2626.66,3020.47,600.10,602.44,39.08,0000 0000 0000 0000 000000
2017-08-27 07:13:15,0.02,1.65,0.00,21.60,25.70,28.75,14.07,44.79,1022.65,2039.01,2958.41,2626.30,3020.16,600.37,602.77,39.13,0000 0000 0000 0000 000000
2017-08-27 07:18:17,0.01,1.65,0.00,21.62,25.70,28.72,14.00,44.77,1022.66,2039.01,2958.22,2626.15,3020.06,599.75,602.20,39.18,0000 0000 0000 0000 000000
2017-08-27 07:23:18,0.00,1.66,0.00,21.61,25.70,28.70,14.09,44.64,1022.62,2039.00,2958.03,2626.06,3020.03,600.17,602.48,39.23,0000 0000 0000 0000 000000
2017-08-27 07:28:19,-0.00,1.66,0.00,21.62,25.70,28.73,14.11,44.72,1022.70,2039.00,2958.06,2626.05,3020.03,600.02,602.33,39.28,0000 0000 0000 0000 000000
2017-08-27 07:33:20,0.00,1.66,0.00,21.61,25.72,28.74,14.14,44.66,1022.66,2039.00,2958.00,2626.04,3020.01,600.00,602.37,39.33,0000 0000 0000 0000 000000
2017-08-27 07:38:21,0.00,1.66,0.00,21.60,25.72,28.76,14.02,44.77,1022.64,2039.01,2958.00,2626.01,3020.00,600.04,602.36,39.38,0000 0000 0000 0000 000000
2017-08-27 07:43:23,0.00,1.66,0.00,21.61,25.72,28.77,14.13,44.77,1022.69,2039.00,2957.98,2626.00,3020.00,600.20,602.59,39.43,0000 0000 0000 0000 000000
2017-08-27 07:48:24,0.00,1.66,0.00,21.61,25.72,28.74,14.12,44.82,1022.71,2039.00,2957.99,2626.00,3020.00,599.97,602.39,39.48,0000 0000 0000 0000 000000
2017-08-27 07:53:25,0.00,1.66,0.00,21.60,25.72,28.77,14.10,44.77,1022.80,2038.99,2957.99,2626.00,3020.00,599.75,602.23,39.53,0000 0000 0000 0000 000000
2017-08-27 07:58:27,0.00,1.66,0.00,21.60,25.73,28.78,14.11,44.80,1022.78,2038.99,2957.99,2626.00,3020.00,600.00,602.60,39.58,0000 0000 0000 0000 000000
2017-08-27 08:03:28,0.00,1.66,0.00,21.61,25.74,28.78,14.10,44.74,1022.84,2038.99,2957.98,2626.00,3019.99,600.18,602.69,39.64,0000 0000 0000 0000 000000
2017-08-27 08:08:29,0.00,1.66,0.00,21.62,25.75,28.79,14.09,44.72,1022.88,2038.99,2957.98,2626.00,3019.99,599.84,602.41,39.69,0000 0000 0000 0000 000000
2017-08-27 08:13:30,0.01,1.66,0.00,21.60,25.75,28.77,14.16,44.75,1022.87,2038.99,2957.67,2626.00,3019.97,600.25,602.71,39.74,0000 0000 0000 0000 000000
2017-08-27 08:18:32,0.01,1.66,0.00,21.60,25.75,28.78,14.07,44.72,1022.91,2039.00,2957.08,2625.99,3019.89,599.91,602.39,39.79,0000 0000 0000 0000 000000
2017-08-27 08:23:33,0.00,1.66,0.00,21.60,25.75,28.80,14.08,44.76,1022.92,2039.00,2957.02,2625.99,3019.63,599.89,602.64,39.84,0000 0000 0000 0000 000000
2017-08-27 08:28:35,-0.00,1.66,0.00,21.60,25.75,28.80,14.13,44.77,1022.95,2039.00,2957.09,2625.98,3019.74,599.89,602.41,39.89,0000 0000 0000 0000 000000
2017-08-27 08:33:36,-0.01,1.66,0.00,21.60,25.75,28.79,14.10,44.73,1022.94,2039.00,2957.80,2625.99,3019.93,600.05,602.68,39.94,0000 0000 0000 0000 000000
2017-08-27 08:38:37,0.04,1.66,0.00,21.59,25.75,28.78,14.10,44.79,1022.95,2038.99,2956.72,2625.43,3019.20,600.14,602.78,39.99,0000 0000 0000 0000 000000
2017-08-27 08:43:38,0.57,1.68,0.00,21.58,25.75,28.79,14.04,44.60,1022.96,2038.99,2946.83,2619.46,3012.03,599.53,602.21,40.04,0000 0000 0000 0000 000000
2017-08-27 08:48:40,0.01,1.69,0.00,21.57,25.75,28.80,14.04,44.48,1022.96,2038.99,2945.95,2618.97,3011.16,600.18,602.87,40.09,0000 0000 0000 0000 000000
2017-08-27 08:53:41,0.00,1.69,0.00,21.57,25.75,28.79,14.10,44.42,1022.96,2038.99,2945.85,2618.97,3011.10,600.00,602.60,40.14,0000 0000 0000 0000 000000
2017-08-27 08:58:42,-0.00,1.69,0.00,21.57,25.75,28.78,14.10,44.42,1022.96,2038.99,2945.93,2618.97,3011.12,600.04,602.72,40.19,0000 0000 0000 0000 000000
2017-08-27 09:03:43,0.07,1.69,0.00,21.57,25.75,28.79,14.07,44.46,1022.96,2038.98,2945.31,2618.50,3010.84,599.87,602.47,40.24,0000 0000 0000 0000 000000
2017-08-27 09:08:44,0.07,1.69,0.00,21.56,25.75,28.80,14.14,44.66,1022.96,2038.99,2943.11,2617.06,3009.87,600.26,603.01,40.29,0000 0000 0000 0000 000000
2017-08-27 09:13:46,0.00,1.69,0.00,21.54,25.75,28.80,14.08,44.48,1022.96,2038.99,2943.00,2617.00,3009.72,599.71,602.40,40.34,0000 0000 0000 0000 000000
2017-08-27 09:18:47,0.00,1.69,0.00,21.54,25.75,28.81,14.15,44.50,1022.96,2038.99,2942.97,2617.00,3009.76,600.07,602.84,40.39,0000 0000 0000 0000 000000
2017-08-27 09:23:49,0.00,1.69,0.00,21.54,25.75,28.79,14.10,44.57,1022.96,2038.99,2942.96,2617.00,3009.57,600.16,602.99,40.44,0000 0000 0000 0000 000000
2017-08-27 09:28:50,0.00,1.69,0.00,21.53,25.75,28.80,14.04,44.61,1022.96,2038.99,2942.98,2617.00,3009.51,599.92,602.74,40.49,0000 0000 0000 0000 000000
2017-08-27 09:33:51,-0.00,1.69,0.00,21.52,25.75,28.81,14.06,44.67,1022.96,2038.99,2942.99,2617.01,3009.77,599.85,602.57,40.54,0000 0000 0000 0000 000000
2017-08-27 09:38:52,0.00,1.69,0.00,21.51,25.74,28.77,14.08,44.83,1022.96,2038.99,2942.99,2617.01,3009.86,599.60,602.59,40.59,0000 0000 0000 0000 000000
2017-08-27 09:43:53,0.00,1.69,0.00,21.51,25.74,28.77,14.05,44.65,1022.96,2038.99,2943.00,2617.03,3009.95,599.96,602.73,40.65,0000 0000 0000 0000 000000
2017-08-27 09:48:55,-0.00,1.69,0.00,21.49,25.73,28.78,14.08,44.71,1022.96,2038.98,2943.00,2617.02,3009.90,599.78,602.60,40.70,0000 0000 0000 0000 000000
2017-08-27 09:53:56,0.01,1.69,0.00,21.49,25.72,28.76,14.06,44.53,1022.96,2038.99,2942.97,2617.01,3009.64,599.74,602.56,40.75,0000 0000 0000 0000 000000
2017-08-27 09:58:57,0.01,1.69,0.00,21.49,25.72,28.78,14.07,44.57,1022.96,2038.99,2942.70,2617.00,3009.46,600.05,602.97,40.80,0000 0000 0000 0000 000000
2017-08-27 10:03:58,0.01,1.69,0.00,21.47,25.72,28.78,14.03,44.63,1022.98,2039.01,2942.60,2617.01,3009.58,600.04,602.88,40.85,0000 0000 0000 0000 000000
2017-08-27 10:08:59,-0.01,1.69,0.00,21.47,25.72,28.77,14.12,44.63,1022.98,2039.00,2942.88,2617.01,3009.62,599.97,602.83,40.90,0000 0000 0000 0000 000000
2017-08-27 10:14:00,-0.00,1.69,0.00,21.47,25.72,28.76,14.02,44.52,1023.00,2039.00,2942.98,2617.03,3009.85,599.86,602.83,40.95,0000 0000 0000 0000 000000
2017-08-27 10:19:02,-0.00,1.69,0.00,21.45,25.70,28.76,14.07,44.61,1023.06,2039.00,2942.99,2617.08,3009.95,600.23,603.15,41.00,0000 0000 0000 0000 000000
2017-08-27 10:24:03,0.00,1.69,0.00,21.44,25.70,28.76,14.16,44.70,1023.25,2039.00,2942.97,2617.06,3009.85,600.48,603.52,41.05,0000 0000 0000 0000 000000
2017-08-27 10:29:05,-0.00,1.69,0.00,21.42,25.70,28.74,14.10,44.67,1023.23,2039.00,2942.98,2617.07,3009.91,599.87,603.08,41.10,0000 0000 0000 0000 000000
2017-08-27 10:34:06,-0.00,1.69,0.00,21.42,25.70,28.74,14.13,44.84,1023.04,2039.00,2942.98,2617.09,3009.94,599.71,602.73,41.15,0000 0000 0000 0000 000000
2017-08-27 10:39:07,0.01,1.69,0.00,21.42,25.70,28.75,14.09,44.86,1023.02,2039.00,2942.95,2617.04,3009.74,599.90,603.03,41.20,0000 0000 0000 0000 000000
2017-08-27 10:44:08,-0.01,1.69,0.00,21.41,25.68,28.74,14.12,44.65,1023.11,2039.01,2942.97,2617.10,3009.78,600.44,603.54,41.25,0000 0000 0000 0000 000000
2017-08-27 10:49:10,-0.01,1.69,0.00,21.40,25.67,28.72,14.07,44.88,1023.12,2039.01,2942.99,2617.25,3009.93,599.93,602.95,41.30,0000 0000 0000 0000 000000
2017-08-27 10:54:11,-0.01,1.69,0.00,21.39,25.67,28.71,14.10,44.73,1023.09,2039.02,2942.99,2617.54,3009.97,599.76,602.74,41.35,0000 0000 0000 0000 000000
2017-08-27 10:59:12,0.01,1.69,0.00,21.39,25.67,28.71,14.15,44.68,1023.10,2039.06,2942.98,2617.48,3009.97,600.21,603.36,41.40,0000 0000 0000 0000 000000
2017-08-27 11:04:13,0.01,1.69,0.00,21.38,25.65,28.70,14.22,44.75,1023.19,2039.04,2942.96,2617.28,3009.97,600.25,603.43,41.45,0000 0000 0000 0000 000000
2017-08-27 11:09:14,-0.01,1.69,0.00,21.37,25.65,28.69,14.13,44.68,1023.19,2039.05,2942.97,2617.51,3009.97,600.26,603.61,41.50,0000 0000 0000 0000 000000
2017-08-27 11:14:15,-0.01,1.69,0.00,21.37,25.65,28.68,14.08,44.70,1023.24,2039.02,2942.99,2617.81,3009.99,599.69,603.03,41.56,0000 0000 0000 0000 000000
2017-08-27 11:19:17,-0.00,1.69,0.00,21.36,25.64,28.64,14.03,44.63,1023.35,2039.02,2942.99,2617.84,3009.99,599.85,603.08,41.61,0000 0000 0000 0000 000000
2017-08-27 11:24:18,0.00,1.69,0.00,21.35,25.62,28.66,14.10,44.79,1023.34,2039.02,2942.98,2617.84,3009.98,599.84,603.18,41.66,0000 0000 0000 0000 000000
2017-08-27 11:29:19,0.00,1.69,0.00,21.33,25.62,28.66,14.14,44.91,1023.26,2039.05,2942.99,2617.94,3009.99,600.09,603.48,41.71,0000 0000 0000 0000 000000
2017-08-27 11:34:20,0.01,1.69,0.00,21.32,25.62,28.64,14.13,44.97,1023.27,2039.14,2942.99,2617.96,3009.99,599.84,603.23,41.76,0000 0000 0000 0000 000000
2017-08-27 11:39:21,-0.00,1.69,0.00,21.32,25.60,28.65,14.15,44.81,1023.17,2039.22,2942.99,2617.98,3009.99,600.13,603.47,41.81,0000 0000 0000 0000 000000
2017-08-27 11:44:22,0.01,1.69,0.00,21.31,25.60,28.64,14.11,44.77,1023.09,2039.23,2943.00,2617.97,3009.99,600.06,603.21,41.86,0000 0000 0000 0000 000000
2017-08-27 11:49:24,0.01,1.69,0.00,21.29,25.60,28.63,14.08,44.69,1023.00,2039.37,2943.00,2617.99,3009.99,599.85,603.15,41.91,0000 0000 0000 0000 000000
2017-08-27 11:54:25,-0.00,1.69,0.00,21.28,25.58,28.62,14.11,44.79,1022.99,2039.47,2943.00,2617.99,3009.99,599.82,603.15,41.96,0000 0000 0000 0000 000000
2017-08-27 11:59:26,0.01,1.69,0.00,21.27,25.57,28.61,14.16,44.76,1023.01,2039.52,2943.00,2617.99,3009.99,599.94,603.30,42.01,0000 0000 0000 0000 000000
2017-08-27 12:04:28,0.02,1.70,0.00,21.27,25.57,28.61,14.10,44.73,1023.00,2039.60,2943.03,2617.99,3010.01,600.07,603.28,42.06,0000 0000 0000 0000 000000
2017-08-27 12:09:29,0.56,1.71,0.00,21.25,25.56,28.59,14.11,44.79,1022.99,2039.67,2936.34,2613.70,3005.18,600.19,603.52,42.11,0000 0000 0000 0000 000000
2017-08-27 12:14:30,0.05,1.73,0.00,21.25,25.55,28.57,14.11,44.77,1022.97,2039.87,2932.07,2611.01,3002.12,600.15,603.48,42.16,0000 0000 0000 0000 000000
2017-08-27 12:19:31,0.01,1.73,0.00,21.23,25.55,28.57,14.18,44.83,1022.97,2039.97,2931.98,2610.93,3002.02,599.91,603.24,42.21,0000 0000 0000 0000 000000
2017-08-27 12:24:33,0.00,1.73,0.00,21.22,25.53,28.56,14.12,44.83,1022.97,2039.99,2931.98,2610.86,3002.01,599.78,603.16,42.26,0000 0000 0000 0000 000000
2017-08-27 12:29:34,0.00,1.73,0.00,21.21,25.52,28.56,14.15,44.80,1022.98,2039.99,2931.99,2610.93,3002.01,600.03,603.46,42.31,0000 0000 0000 0000 000000
2017-08-27 12:34:35,-0.00,1.73,0.00,21.19,25.52,28.54,14.13,44.77,1022.97,2039.98,2931.98,2610.96,3002.04,599.94,603.38,42.36,0000 0000 0000 0000 000000
2017-08-27 12:39:36,0.00,1.73,0.00,21.19,25.51,28.53,14.10,44.86,1022.96,2039.99,2931.99,2610.96,3002.04,599.94,603.37,42.41,0000 0000 0000 0000 000000
2017-08-27 12:44:38,0.00,1.73,0.00,21.17,25.50,28.54,14.13,44.79,1022.96,2039.99,2931.98,2610.97,3002.03,599.90,603.38,42.46,0000 0000 0000 0000 000000
2017-08-27 12:49:39,0.00,1.73,0.00,21.17,25.50,28.53,14.17,44.83,1022.96,2039.99,2931.98,2610.98,3002.01,600.14,603.59,42.52,0000 0000 0000 0000 000000
2017-08-27 12:54:40,0.00,1.73,0.00,21.17,25.48,28.52,14.09,44.39,1022.96,2039.99,2931.95,2610.97,3002.00,599.67,603.13,42.57,0000 0000 0000 0000 000000